COSMOS 2527 (756)

Last updated on Tue Jan 14 2025 00:03:10 GMT+0000 (Coordinated Universal Time)

1 43508U 18053A 25012.67440722 -.00000027 00000+0 00000+0 0 9997 2 43508 65.2978 91.3075 0009293 232.2740 127.6875 2.13102199 51186
UTC large
Height (km)
Speed (km/s)
/
Latitude / Longitude
Inclination (degrees)
Orbital Period (minutes)
Azimuth
Elevation
Range (km)
Doppler Factor

Next 0 passes for location: London (51.5072 / 0.1276)

Sorry there are no passes over London.